Temperature
20 17 17 17 18 19 20 20 20 21 23 23 22 23 23 23 23 22 22 21 20 20 21 23 23 23 23 23 22 22 22 21 21 20 20 19 19 19 18 18 18 17 17 17
17 17 18 19 20 20 20 20 20 21 23 23 22 22 22 21 21 21 20 19 18 19 20 22 22 22 22 22 22 22 22 21 21 21 20 20 19 18 18 18 17 17 17 16
17 18 19 20 20 20 20 20 20 21 22 22 22 22 21 20 19 18 17 17 17 18 18 20 20 21 21 21 21 21 21 21 21 20 20 19 19 18 18 17 17 16 16 16
17 18 20 20 20 20 19 21 22 22 21 19 21 20 20 19 17 17 16 15 15 16 17 17 18 19 20 20 20 20 20 20 20 20 19 19 18 18 17 16 16 15 15 15
18 19 19 20 21 21 20 22 22 22 21 20 20 19 19 18 17 16 15 14 14 15 15 16 17 17 18 18 18 19 19 19 19 19 18 18 17 17 16 15 15 15 14 14
18 20 20 20 22 22 22 22 21 19 18 19 20 20 18 17 17 16 14 14 13 14 14 14 15 16 16 17 17 17 18 17 17 17 17 17 16 16 15 14 14 14 13 13
18 19 21 21 21 21 21 18 17 18 17 18 19 19 17 16 16 15 14 13 13 13 13 14 14 15 15 15 16 16 16 16 16 16 16 15 15 15 14 14 13 13 12 12
17 18 20 21 21 20 20 18 17 18 18 18 19 17 16 15 14 13 12 12 12 12 12 13 13 13 14 14 15 15 15 15 15 15 14 14 14 13 13 12 12 12 11 11
17 18 20 22 22 21 20 18 18 17 18 18 17 16 15 15 14 13 12 12 12 12 12 12 12 12 13 13 13 13 13 13 13 13 13 13 12 12 12 11 11 11 10 10
18 18 19 21 21 21 20 19 16 16 17 17 18 17 16 14 13 13 12 11 11 11 11 11 11 11 11 12 12 12 12 12 12 12 12 11 11 11 10 10 10 9 9 8
17 17 18 19 19 19 19 19 17 16 16 17 17 16 16 14 13 12 11 11 11 11 10 10 10 10 10 11 11 11 11 11 11 10 10 10 10 9 9 9 8 8 7 7
16 15 16 17 18 19 19 18 16 16 16 16 16 15 14 13 12 11 11 10 10 10 10 10 10 10 10 10 10 10 10 10 9 9 9 9 8 8 8 7 7 7 6 6
16 15 15 16 16 17 17 18 17 16 15 15 15 14 13 12 11 11 10 10 10 9 9 9 9 9 9 9 9 9 9 9 8 8 8 8 7 7 7 6 6 6 6 5
16 14 14 15 15 16 16 17 17 16 14 15 15 14 13 12 11 10 10 9 9 9 9 9 9 8 8 8 8 8 8 8 7 7 7 7 6 6 6 5 5 5 5 5
15 14 15 15 16 17 16 17 17 16 16 15 15 14 13 12 11 10 9 9 9 8 8 8 8 8 8 7 7 7 7 7 6 6 6 6 5 5 5 5 5 4 4 4
13 14 15 15 16 16 15 15 16 16 15 15 14 13 12 11 10 9 9 9 8 8 8 7 7 7 7 7 7 6 6 6 6 6 5 5 5 5 4 4 4 4 3 3
13 13 14 14 16 16 14 13 14 14 14 14 13 12 11 10 10 9 8 8 8 7 7 7 7 7 7 6 6 6 5 5 5 5 5 4 4 4 4 4 3 3 3 3
14 13 12 13 14 13 13 13 14 13 12 12 12 11 10 9 9 8 8 8 7 7 7 7 6 6 6 6 6 5 5 5 5 4 4 4 4 4 3 3 3 3 3 3
14 14 12 12 13 13 14 14 13 12 11 11 11 10 9 8 8 7 8 8 7 7 7 6 6 6 6 5 5 5 5 5 4 4 4 4 4 3 3 3 3 3 3 3
14 12 12 12 13 12 13 14 14 12 11 10 10 9 8 9 8 7 7 7 7 6 6 6 6 6 5 5 5 5 5 4 4 4 4 4 3 3 3 3 3 3 3 3
13 12 12 11 11 12 13 14 14 12 11 10 10 9 9 9 8 7 7 7 6 6 6 6 5 5 5 5 5 5 4 4 4 4 4 4 4 3 3 3 3 3 3 2
12 12 12 11 11 11 12 13 12 11 11 10 10 9 9 8 7 7 7 6 6 6 6 5 5 5 5 5 5 5 4 4 4 4 4 4 4 4 4 3 3 3 3 2
12 11 10 10 10 11 12 12 12 12 11 10 10 9 9 7 7 6 6 6 6 6 5 5 5 5 5 5 5 5 4 4 4 4 4 4 4 4 4 4 3 3 3 2
14 12 10 10 10 11 11 12 11 12 11 11 10 9 8 7 6 6 6 6 6 5 5 5 5 5 5 5 5 5 4 4 4 4 4 4 4 4 4 4 3 3 3 2
14 12 10 10 10 11 11 11 11 11 10 9 9 8 8 7 6 6 6 6 6 5 5 5 5 5 5 5 5 5 5 5 5 4 4 4 4 4 4 4 3 3 3 2
12 11 10 9 11 10 10 10 11 10 9 8 8 7 7 7 6 6 6 6 6 6 5 5 5 5 5 5 5 5 5 5 5 5 5 5 5 4 4 4 3 3 2 2
Wind_Speed
2 3 4 7 7 7 6 7 11 12 11 7 10 13 10 3 2 3 6 10 11 8 6 7 6 4 5 3 2 5 8 10 10 9 8 7 5 5 4 4 7 9 9 9
3 5 10 8 7 6 8 10 12 13 10 6 8 10 3 4 5 7 10 11 11 9 7 8 7 4 4 2 2 4 7 9 9 8 6 5 6 5 5 5 7 9 9 9
7 9 8 8 9 8 10 8 8 9 10 6 3 2 2 6 11 14 12 11 10 10 10 8 7 5 4 2 0 3 4 7 8 9 8 8 6 5 4 6 5 7 9 10
7 10 8 9 10 9 10 10 8 6 4 5 2 2 2 4 10 12 12 11 10 10 9 8 7 6 4 3 4 4 4 5 6 8 10 10 7 6 5 5 6 8 10 11
7 7 8 10 12 10 9 9 6 4 1 3 3 3 3 3 7 9 10 12 11 11 11 10 8 7 8 9 8 7 9 9 8 7 7 8 8 7 7 8 9 8 8 11
10 8 7 10 10 8 7 3 3 4 5 2 4 3 3 2 5 9 10 12 12 12 12 12 12 12 13 12 11 11 13 13 11 11 10 10 11 11 11 10 9 8 7 8
8 9 7 6 5 4 2 5 4 4 3 5 3 4 2 8 12 14 13 12 12 12 12 13 14 15 15 15 14 14 15 15 14 14 13 12 12 12 11 10 9 8 7 7
3 7 6 4 7 5 4 8 7 4 3 4 3 4 6 14 16 16 14 12 12 13 13 14 15 15 15 16 15 16 16 16 15 16 15 14 13 11 10 10 9 9 8 8
2 6 7 5 5 7 4 4 9 6 2 0 0 6 7 13 15 14 13 13 12 12 13 15 15 16 16 16 15 15 16 16 16 16 16 15 14 13 13 11 10 9 8 7
4 5 7 4 1 2 7 6 5 5 4 2 2 5 8 13 14 13 12 12 11 12 13 14 15 15 15 15 15 15 16 17 15 14 13 13 13 13 12 11 11 10 9 8
2 1 6 4 1 3 2 3 4 4 5 5 3 2 2 16 16 16 13 13 12 12 12 13 13 13 14 14 14 15 15 15 15 14 14 13 12 12 11 11 10 9 8 8
1 3 1 3 3 0 4 3 5 5 4 4 4 2 6 13 13 16 15 13 12 12 12 12 13 13 14 14 14 14 13 14 13 12 13 13 12 11 11 10 9 8 9 8
3 4 3 6 7 8 5 3 2 5 4 3 4 5 8 13 13 14 14 13 12 12 12 12 12 13 13 13 13 13 13 12 12 12 12 12 11 11 10 10 9 9 8 8
4 4 4 3 3 2 4 7 4 4 3 2 4 11 12 14 14 13 12 12 12 12 12 12 12 11 12 12 12 12 11 11 11 11 11 11 10 9 9 9 8 8 7 8
5 3 1 0 1 2 5 9 9 5 2 4 8 12 15 15 15 14 13 13 13 12 12 12 11 11 11 11 10 10 10 9 9 10 10 8 8 8 8 8 8 7 7 7
5 3 2 2 3 6 9 12 9 9 7 9 13 9 10 12 11 12 12 13 13 12 12 12 11 11 10 10 9 9 8 7 8 9 8 8 8 8 7 7 6 6 6 5
3 3 3 1 2 5 8 9 7 6 5 3 5 8 16 14 12 12 11 12 11 11 11 10 10 9 9 8 7 7 6 7 7 8 7 7 7 6 5 5 5 5 4 4
3 3 3 2 4 5 1 2 6 9 9 9 11 13 12 12 11 9 9 12 12 11 10 9 9 8 7 6 6 6 6 7 7 7 6 5 5 5 4 5 4 3 2 1
4 4 4 4 5 4 1 2 0 4 5 6 13 14 14 15 12 8 7 9 10 10 9 8 7 7 6 6 5 7 6 6 6 6 5 4 5 4 4 3 2 1 1 1
6 6 5 4 5 2 2 4 3 7 4 4 10 15 15 10 6 6 8 11 10 9 8 7 7 7 6 5 6 7 6 6 5 4 3 3 3 3 2 0 1 1 1 2
5 6 5 4 4 1 4 5 1 1 5 7 9 11 9 3 5 10 11 10 9 9 8 7 7 6 4 5 6 6 5 4 3 3 2 1 1 1 1 1 1 1 2 3
3 3 3 3 3 2 6 3 3 4 4 8 8 7 8 12 14 12 11 10 9 8 7 7 6 5 4 5 6 5 3 2 2 2 1 0 1 1 1 0 1 2 3 4
3 4 4 4 3 3 3 5 5 7 8 6 7 11 15 14 12 11 10 9 8 7 6 5 6 6 4 4 5 4 2 2 2 1 1 2 2 2 1 1 1 1 3 3
2 4 6 5 4 5 7 7 7 8 9 10 12 13 13 13 12 11 9 8 7 6 6 5 7 6 4 3 3 3 3 2 2 1 3 3 3 3 2 0 2 2 2 2
1 4 5 5 6 7 6 8 10 12 13 13 12 11 12 13 12 10 8 7 6 5 5 5 6 5 4 3 3 3 3 3 2 2 3 3 3 2 1 1 1 2 2 4
1 5 7 6 8 7 5 7 12 13 12 13 13 11 10 10 10 9 8 6 6 6 5 6 5 5 4 4 4 4 4 4 3 3 3 3 2 1 2 3 3 3 2 3
Wind_Direction
240 114 229 237 212 213 258 282 287 283 281 262 241 243 250 236 110 126 134 133 132 123 106 89 83 96 103 106 170 185 173 172 165 162 156 148 141 125 108 100 114 119 119 118
6 253 235 239 255 260 270 277 282 291 299 282 236 235 232 69 86 97 111 115 119 115 98 90 87 82 97 106 187 192 186 178 173 166 152 135 125 108 97 89 86 96 102 105
213 242 239 239 255 259 267 255 265 278 313 333 146 240 101 75 75 74 74 83 88 102 108 100 95 79 77 69 130 187 181 171 157 140 124 113 101 94 90 83 76 68 83 89
242 249 249 242 242 232 257 253 256 284 331 308 66 181 283 105 81 76 73 69 67 71 82 86 88 87 82 67 50 71 91 106 122 132 140 140 137 129 110 97 85 70 68 73
247 243 233 238 238 227 235 254 257 274 291 332 8 110 274 79 95 87 78 71 66 65 69 73 71 72 61 59 59 66 73 73 79 93 113 116 110 108 103 97 92 80 68 67
251 260 229 227 238 228 236 286 356 48 70 337 266 139 295 2 127 109 84 70 65 65 67 69 68 67 63 60 61 64 73 70 71 79 84 99 108 111 109 102 96 84 74 65
291 284 261 236 245 274 113 87 38 12 22 253 259 120 65 57 83 97 87 71 62 61 63 64 66 65 63 60 61 65 71 70 69 74 76 82 91 96 99 98 93 89 80 73
272 286 270 221 191 195 180 138 155 178 204 292 356 108 89 86 86 85 82 75 67 63 64 65 64 65 65 63 63 67 70 70 69 72 73 73 77 82 83 84 89 87 85 81
246 272 283 248 200 163 166 174 170 143 157 287 271 118 113 104 96 91 87 79 72 68 68 69 68 67 67 66 65 68 72 72 69 72 74 73 75 79 83 82 82 84 84 86
193 276 291 273 104 177 165 158 102 122 158 235 246 170 166 143 123 112 102 94 84 78 76 74 73 72 71 71 70 68 70 71 70 71 75 79 76 79 82 82 81 80 77 77
129 238 320 9 90 213 131 123 122 145 164 171 226 273 167 149 137 126 118 111 103 93 86 82 79 76 76 75 74 73 73 74 74 74 75 76 75 76 77 78 78 79 77 72
36 118 333 288 286 91 127 153 142 158 223 176 157 82 80 125 125 125 123 117 109 102 97 92 89 85 81 78 76 76 76 76 75 76 77 75 72 72 72 72 69 70 70 66
58 84 37 354 353 13 32 5 136 151 143 156 151 127 103 114 116 121 123 119 112 105 100 94 89 87 85 82 80 77 76 76 75 76 76 73 70 70 69 66 64 65 67 65
91 74 123 161 250 309 1 8 20 98 127 176 157 136 139 134 128 124 120 116 112 105 100 96 92 87 85 82 80 81 79 79 79 77 76 74 70 69 68 66 65 65 66 69
84 85 85 218 294 75 46 25 30 48 120 154 146 145 153 147 141 135 128 124 119 114 108 103 98 92 87 84 81 81 80 78 82 82 78 76 74 72 70 67 65 62 62 68
58 91 61 17 43 67 47 26 35 44 58 110 117 115 130 127 125 130 134 133 128 122 115 109 103 97 92 89 87 83 80 80 84 85 83 79 78 75 71 68 63 62 59 60
36 86 87 335 333 56 32 7 37 53 38 106 122 135 139 135 137 140 136 129 125 119 113 107 101 96 94 91 95 92 87 85 85 85 84 85 86 80 73 74 67 58 52 57
127 90 104 87 60 71 1 4 77 75 56 82 105 122 129 126 114 109 123 126 120 115 111 106 102 98 92 92 89 88 86 87 86 82 82 83 85 80 72 66 55 38 35 52
131 119 86 87 91 105 39 319 249 96 66 97 121 124 121 118 102 90 98 110 115 116 115 112 111 108 100 90 87 89 86 86 87 87 82 82 87 81 69 59 28 356 352 325
53 72 87 86 100 125 276 303 143 106 111 152 139 140 143 138 132 143 126 115 111 109 109 110 105 100 95 89 91 92 91 93 99 105 99 87 87 89 91 102 309 310 315 305
27 31 55 80 97 115 297 305 151 136 189 164 153 151 153 137 132 133 127 118 117 114 113 110 105 100 102 99 95 94 95 109 135 131 114 83 74 135 177 228 314 332 349 359
95 77 52 79 94 248 311 25 123 169 127 132 136 135 119 112 114 120 121 120 120 117 113 111 104 96 97 104 101 100 108 147 143 132 127 257 289 248 178 175 358 18 33 30
85 151 140 129 175 228 31 92 110 116 112 111 116 125 127 123 123 122 121 122 123 121 116 111 110 101 92 107 113 116 157 164 147 150 275 276 288 290 256 192 155 58 52 56
70 104 95 86 99 97 87 89 88 101 110 114 123 126 126 123 125 124 124 125 124 121 120 116 113 112 112 128 138 163 186 175 170 230 272 278 285 285 287 230 152 133 113 92
166 101 95 102 128 94 82 103 109 104 109 112 114 118 123 125 127 127 128 129 128 127 125 127 132 140 157 171 190 214 206 182 197 259 280 291 284 263 231 134 119 153 177 174
318 146 145 182 184 144 145 131 122 117 121 126 124 118 122 126 127 127 128 130 129 128 128 134 146 160 184 198 221 235 223 206 212 261 279 279 276 241 175 134 81 57 144 150
Height
1490 1497 1502 1499 1498 1499 1499 1501 1502 1494 1484 1485 1486 1483 1479 1479 1481 1481 1484 1487 1490 1492 1495 1498 1502 1505 1508 1511 1514 1517 1519 1521 1524 1527 1530 1532 1534 1537 1539 1541 1543 1544 1546 1547
1496 1499 1493 1491 1492 1494 1497 1501 1499 1490 1480 1481 1482 1482 1480 1482 1483 1483 1485 1487 1489 1491 1494 1496 1499 1502 1505 1507 1511 1513 1515 1518 1522 1525 1527 1529 1532 1535 1537 1538 1540 1541 1542 1543
1499 1493 1488 1490 1493 1495 1496 1499 1496 1493 1483 1478 1481 1488 1487 1488 1487 1488 1490 1491 1491 1492 1493 1496 1498 1501 1502 1505 1507 1509 1512 1515 1519 1522 1525 1527 1530 1532 1534 1535 1537 1538 1539 1540
1493 1486 1487 1489 1491 1491 1497 1486 1486 1486 1493 1498 1489 1506 1494 1491 1494 1495 1497 1497 1497 1496 1495 1497 1498 1500 1501 1503 1504 1506 1510 1513 1517 1520 1522 1524 1526 1528 1530 1532 1534 1536 1537 1538
1489 1483 1485 1487 1484 1483 1486 1480 1481 1483 1489 1497 1494 1504 1502 1493 1499 1502 1503 1503 1502 1501 1500 1499 1500 1501 1502 1504 1505 1506 1510 1513 1515 1518 1520 1522 1524 1526 1528 1531 1532 1534 1535 1536
1482 1477 1478 1478 1475 1476 1477 1479 1482 1488 1498 1510 1498 1503 1508 1501 1499 1504 1507 1508 1508 1507 1505 1504 1503 1504 1504 1505 1507 1508 1509 1511 1513 1516 1518 1520 1523 1525 1527 1529 1531 1532 1534 1535
1485 1477 1472 1471 1476 1475 1478 1494 1510 1511 1518 1514 1495 1502 1511 1504 1502 1506 1510 1512 1512 1511 1510 1508 1507 1507 1508 1508 1509 1510 1511 1513 1515 1517 1519 1521 1523 1525 1527 1529 1531 1532 1533 1534
1493 1489 1472 1468 1472 1478 1480 1491 1512 1519 1519 1512 1498 1508 1512 1509 1510 1513 1515 1516 1517 1516 1514 1513 1512 1512 1512 1513 1513 1513 1514 1514 1516 1517 1520 1522 1524 1526 1528 1529 1531 1532 1533 1535
1490 1486 1468 1464 1463 1469 1479 1487 1489 1503 1505 1512 1510 1510 1513 1512 1514 1517 1519 1520 1521 1520 1519 1518 1517 1516 1517 1517 1518 1518 1518 1518 1519 1521 1522 1524 1526 1527 1529 1531 1533 1534 1535 1536
1480 1486 1472 1464 1463 1466 1471 1477 1493 1505 1515 1519 1509 1509 1511 1512 1515 1519 1521 1523 1524 1524 1523 1522 1521 1521 1522 1522 1523 1522 1522 1523 1524 1526 1526 1528 1529 1531 1532 1534 1535 1536 1537 1538
1477 1486 1480 1472 1474 1476 1476 1481 1489 1500 1504 1514 1517 1516 1502 1507 1511 1517 1522 1524 1525 1526 1527 1526 1526 1526 1527 1527 1527 1527 1528 1528 1530 1530 1531 1532 1533 1534 1535 1536 1537 1538 1539 1540
1478 1486 1490 1482 1474 1469 1474 1480 1488 1503 1503 1503 1512 1519 1506 1509 1514 1517 1523 1526 1527 1528 1529 1530 1530 1530 1531 1532 1532 1532 1533 1533 1534 1535 1535 1536 1537 1538 1538 1539 1540 1540 1541 1541
1479 1489 1497 1494 1489 1481 1482 1480 1482 1489 1498 1505 1512 1519 1514 1515 1519 1522 1524 1527 1529 1530 1531 1532 1533 1534 1534 1535 1536 1536 1537 1538 1538 1539 1539 1539 1540 1541 1541 1542 1542 1542 1542 1542
1477 1490 1498 1504 1499 1491 1489 1485 1482 1487 1501 1503 1503 1510 1515 1518 1521 1525 1527 1529 1531 1533 1534 1534 1535 1537 1538 1538 1539 1540 1540 1541 1541 1542 1542 1542 1543 1544 1544 1544 1544 1544 1544 1544
1480 1492 1491 1490 1488 1487 1490 1488 1485 1488 1490 1497 1499 1504 1511 1516 1521 1525 1528 1531 1533 1535 1536 1537 1538 1539 1540 1541 1542 1543 1543 1544 1544 1545 1545 1545 1546 1547 1547 1546 1546 1546 1546 1545
1484 1491 1492 1492 1488 1489 1494 1493 1491 1491 1492 1495 1499 1508 1512 1517 1522 1526 1529 1532 1534 1536 1537 1539 1540 1541 1543 1544 1545 1546 1547 1547 1547 1547 1548 1548 1549 1549 1549 1548 1548 1547 1547 1546
1489 1493 1498 1500 1492 1492 1505 1504 1500 1500 1500 1500 1504 1509 1515 1519 1523 1527 1530 1533 1535 1537 1539 1541 1542 1544 1545 1547 1548 1548 1549 1550 1550 1550 1550 1551 1551 1551 1550 1550 1549 1548 1547 1547
1489 1494 1501 1503 1503 1515 1515 1506 1504 1504 1506 1504 1506 1512 1516 1520 1525 1529 1532 1534 1536 1539 1541 1543 1544 1546 1547 1549 1550 1550 1552 1552 1553 1553 1553 1553 1553 1552 1552 1551 1550 1549 1548 1547
1484 1491 1501 1508 1512 1514 1510 1506 1505 1507 1513 1511 1512 1517 1521 1525 1528 1533 1535 1536 1538 1541 1543 1545 1546 1548 1549 1551 1552 1553 1554 1555 1555 1555 1555 1554 1554 1554 1553 1552 1551 1550 1549 1548
1487 1491 1501 1507 1513 1519 1515 1506 1504 1508 1517 1516 1516 1519 1523 1525 1530 1536 1537 1539 1541 1543 1545 1547 1549 1550 1552 1554 1555 1555 1556 1556 1557 1557 1556 1556 1555 1555 1554 1553 1552 1551 1549 1547
1499 1501 1506 1511 1517 1516 1510 1505 1506 1514 1517 1516 1517 1520 1523 1525 1528 1534 1537 1541 1543 1545 1548 1550 1551 1553 1554 1556 1557 1557 1558 1558 1558 1558 1558 1557 1556 1555 1555 1553 1552 1551 1549 1547
1504 1508 1511 1515 1521 1521 1509 1506 1510 1513 1511 1515 1518 1522 1524 1526 1530 1534 1539 1542 1545 1548 1550 1552 1553 1555 1557 1558 1558 1559 1559 1560 1560 1559 1559 1558 1557 1556 1555 1554 1552 1551 1549 1547
1502 1505 1510 1515 1519 1514 1510 1509 1510 1511 1513 1517 1520 1523 1525 1529 1533 1537 1541 1544 1548 1550 1552 1554 1556 1557 1558 1559 1560 1560 1560 1560 1560 1560 1559 1558 1557 1556 1555 1553 1552 1550 1549 1546
1501 1501 1508 1513 1515 1514 1513 1513 1514 1515 1517 1519 1522 1525 1528 1531 1536 1540 1544 1547 1550 1552 1554 1556 1558 1559 1560 1561 1561 1561 1561 1561 1561 1560 1559 1558 1557 1556 1554 1553 1551 1550 1548 1546
1501 1502 1509 1514 1515 1516 1516 1516 1517 1518 1521 1523 1526 1529 1531 1535 1539 1542 1546 1549 1552 1554 1556 1558 1560 1561 1561 1562 1562 1562 1562 1562 1561 1560 1559 1557 1556 1555 1553 1552 1551 1549 1547 1545
1500 1503 1508 1512 1511 1513 1517 1518 1519 1521 1523 1526 1529 1532 1536 1538 1542 1545 1549 1552 1554 1556 1558 1560 1561 1562 1562 1563 1563 1563 1562 1561 1560 1559 1558 1556 1555 1554 1552 1551 1549 1548 1546 1544